Location: Coupvray
(48.8929°N, 2.7967°E)
Time: 04:20:03
(UTC+00:00)

Cosmos 1269 Rocket - Pass Details

Date: 14 July 2020
Orbit: 773 x 778 km, 74.1° (Epoch: 06 August)

Event Time Altitude Azimuth Distance (km) Brightness Sun altitude
Exits shadow 00:07:32 27° 227° (SW) 1,448 5.0 -19.4°
Maximum altitude 00:10:17 59° 297° (WNW) 895 4.4 -19.4°
Drops below altitude 10° 00:15:31 10° 17° (NNE) 2,331 7.7 -19.3°
Sets 00:17:57 0° 21° (NNE) 3,262 8.7 -19.3°
